KS4XQ Weather Reports


Display with metric or nautical units.
time (UTC)temp
F
wind
direction
speed
MPH
gust
MPH
rain 1hr
in
rain 24hr
in
rain mn
in
humidity
%
barometer
mb
20260502233502 60 47 0.0 0.0 0.00 0.00 0.00 71 1012.1
20260502233002 60 47 0.0 0.0 0.00 0.00 0.00 71 1012.0
20260502232502 60 47 0.0 0.0 0.00 0.00 0.00 70 1012.0
20260502232004 60 47 0.0 0.0 0.00 0.00 0.00 70 1012.0
20260502231502 60 47 0.0 0.0 0.00 0.00 0.00 68 1012.0
20260502230502 61 47 0.0 0.0 0.00 0.00 0.00 66 1011.8
20260502230006 61 47 0.0 0.0 0.00 0.00 0.00 66 1011.8
20260502225002 61 47 0.0 0.0 0.00 0.00 0.00 63 1011.8
20260502224507 62 47 0.0 0.0 0.00 0.00 0.00 62 1011.7
20260502224003 62 47 0.0 0.0 0.00 0.00 0.00 61 1011.7
20260502223502 62 47 0.0 0.0 0.00 0.00 0.00 58 1011.6
20260502222502 62 47 0.0 1.0 0.00 0.00 0.00 61 1011.5
20260502222004 62 47 0.0 1.0 0.00 0.00 0.00 60 1011.6
20260502221502 62 47 0.0 1.0 0.00 0.00 0.00 57 1011.5
20260502221002 63 30 0.0 1.0 0.00 0.00 0.00 58 1011.5
20260502220502 63 30 0.0 1.0 0.00 0.00 0.00 57 1011.5
20260502220006 63 30 0.0 2.0 0.00 0.00 0.00 57 1011.4
20260502215504 63 74 0.0 2.0 0.00 0.00 0.00 60 1011.2
20260502215002 63 108 0.0 1.0 0.00 0.00 0.00 62 1011.4
20260502214502 63 108 0.0 0.0 0.00 0.00 0.00 61 1011.4
20260502214002 63 108 0.0 3.0 0.00 0.00 0.00 60 1011.4
20260502213002 63 106 1.0 3.0 0.00 0.00 0.00 58 1011.1
20260502212502 63 108 1.0 3.0 0.00 0.00 0.00 59 1011.2
20260502212002 63 97 1.0 3.0 0.00 0.00 0.00 61 1011.1
20260502211504 63 95 1.0 3.0 0.00 0.00 0.00 60 1011.1
20260502211002 63 85 1.0 3.0 0.00 0.00 0.00 61 1011.0
20260502210502 63 330 1.0 3.0 0.00 0.00 0.00 60 1011.0
20260502205001 63 126 1.0 6.0 0.00 0.00 0.00 56 1011.1
20260502204502 63 26 1.0 6.0 0.00 0.00 0.00 56 1011.1
20260502203501 63 104 1.0 3.0 0.00 0.00 0.00 56 1011.2
20260502203002 62 94 1.0 4.0 0.00 0.00 0.00 58 1011.2
20260502202501 62 122 1.0 4.0 0.00 0.00 0.00 62 1011.2
20260502202003 62 103 0.0 3.0 0.00 0.00 0.00 62 1011.4
20260502201001 62 61 1.0 2.0 0.00 0.00 0.00 58 1011.4
20260502200502 63 61 1.0 3.0 0.00 0.00 0.00 59 1011.4
20260502200005 63 113 0.0 2.0 0.00 0.00 0.00 61 1011.5
20260502195502 64 103 0.0 2.0 0.00 0.00 0.00 58 1011.4
20260502195002 64 103 1.0 2.0 0.00 0.00 0.00 57 1011.3
20260502194504 64 235 1.0 3.0 0.00 0.00 0.00 55 1011.3
20260502194002 65 47 1.0 3.0 0.00 0.00 0.00 51 1011.2
20260502193502 66 320 1.0 4.0 0.00 0.00 0.00 48 1011.3
20260502192504 67 342 1.0 3.0 0.00 0.00 0.00 50 1011.5
20260502192002 68 312 1.0 3.0 0.00 0.00 0.00 46 1011.6
20260502191502 68 201 1.0 4.0 0.00 0.00 0.00 50 1011.6
20260502191002 67 65 1.0 5.0 0.00 0.00 0.00 52 1011.7
20260502190504 68 188 1.0 6.0 0.00 0.00 0.00 49 1011.8
20260502190004 68 77 1.0 6.0 0.00 0.00 0.00 48 1011.7
20260502185500 67 101 2.0 5.0 0.00 0.00 0.00 54 1011.8
20260502185002 67 247 1.0 4.0 0.00 0.00 0.00 49 1011.8
20260502184500 67 46 1.0 3.0 0.00 0.00 0.00 52 1012.0
20260502184001 65 224 1.0 3.0 0.00 0.00 0.00 54 1012.0
20260502183500 65 219 1.0 5.0 0.00 0.00 0.00 53 1012.1
20260502183003 64 84 1.0 5.0 0.00 0.00 0.00 51 1012.1
20260502182501 64 119 1.0 3.0 0.00 0.00 0.00 55 1012.2
20260502182002 64 36 1.0 4.0 0.00 0.00 0.00 53 1012.1
20260502181500 64 88 1.0 4.0 0.00 0.00 0.00 51 1012.2
20260502181000 65 23 1.0 4.0 0.00 0.00 0.00 53 1012.2
20260502180500 65 169 2.0 5.0 0.00 0.00 0.00 55 1012.2
20260502170500 62 182 2.0 4.0 0.00 0.00 0.00 63 1012.8
20260502164000 62 52 1.0 6.0 0.00 0.00 0.00 70 1012.9
20260502163000 60 138 1.0 4.0 0.00 0.00 0.00 70 1012.9
20260502162502 59 163 1.0 4.0 0.00 0.00 0.00 70 1013.0
20260502162000 59 141 0.0 2.0 0.00 0.00 0.00 70 1013.0
20260502161500 59 92 0.0 4.0 0.00 0.00 0.00 70 1013.1
20260502161000 59 182 1.0 4.0 0.00 0.00 0.00 72 1013.1
20260502160502 59 110 1.0 6.0 0.00 0.00 0.00 72 1013.2
20260502152001 59 116 2.0 9.0 0.00 0.00 0.00 75 1013.2
20260502151502 59 78 1.0 5.0 0.00 0.00 0.00 73 1013.2
20260502150501 58 127 1.0 3.0 0.00 0.00 0.00 76 1013.2
20260502123501 53 101 0.0 3.0 0.00 0.00 0.00 91 1012.3
20260502123002 53 97 1.0 4.0 0.00 0.00 0.00 91 1012.5
20260502122502 53 89 1.0 4.0 0.00 0.00 0.00 92 1012.5
20260502122001 53 99 1.0 2.0 0.00 0.00 0.00 92 1012.6
20260502121501 53 92 0.0 2.0 0.00 0.00 0.00 92 1012.6
20260502121001 53 106 0.0 1.0 0.00 0.00 0.00 93 1012.5
20260502115003 53 80 0.0 1.0 0.00 0.00 0.00 93 1012.2
20260502114501 53 80 0.0 1.0 0.00 0.00 0.00 92 1012.0
20260502114001 53 80 0.0 1.0 0.00 0.00 0.00 92 1012.0
20260502113502 53 92 0.0 1.0 0.00 0.00 0.00 93 1011.6
20260502113002 53 92 0.0 1.0 0.00 0.00 0.00 93 1011.8
20260502112001 53 92 0.0 1.0 0.00 0.00 0.00 92 1012.1
20260502111500 53 92 0.0 1.0 0.00 0.00 0.00 92 1011.8
20260502111002 53 92 0.0 1.0 0.00 0.00 0.00 92 1011.4
20260502110501 53 101 0.0 3.0 0.00 0.00 0.00 92 1011.0
20260502110003 53 96 0.0 1.0 0.00 0.00 0.00 92 1011.1
20260502105502 53 94 0.0 1.0 0.00 0.00 0.00 93 1011.4
20260502105001 53 94 0.0 0.0 0.00 0.00 0.00 93 1011.7
20260502104501 54 94 0.0 2.0 0.00 0.00 0.00 93 1011.8
20260502104004 54 94 0.0 2.0 0.00 0.00 0.00 93 1011.8
20260502102501 54 250 0.0 0.0 0.00 0.00 0.00 94 1011.4
20260502101501 54 250 0.0 0.0 0.00 0.00 0.00 93 1011.2
20260502101001 54 250 0.0 0.0 0.00 0.00 0.00 93 1011.3
20260502100501 54 250 0.0 1.0 0.00 0.00 0.00 93 1011.1
20260502091500 54 250 0.0 0.0 0.00 0.00 0.00 92 1011.4
20260502091000 54 250 0.0 0.0 0.00 0.00 0.00 92 1011.6
20260502090459 55 250 0.0 0.0 0.00 0.00 0.00 92 1011.6
20260502071500 55 250 0.0 0.0 0.00 0.00 0.00 90 1011.8
20260502071000 55 250 0.0 0.0 0.00 0.00 0.00 90 1011.7
20260502070002 55 250 0.0 0.0 0.00 0.00 0.00 90 1011.5
20260502065001 55 250 0.0 0.0 0.00 0.00 0.00 90 1011.6
20260502063959 55 250 0.0 0.0 0.00 0.00 0.00 90 1011.4
20260502063001 55 250 0.0 0.0 0.00 0.00 0.00 90 1011.4
20260502062459 55 250 0.0 0.0 0.00 0.00 0.00 91 1011.4
20260502061459 55 250 0.0 0.0 0.00 0.00 0.00 91 1011.5
20260502061001 55 250 0.0 0.0 0.00 0.00 0.00 89 1011.5
20260502060459 55 250 0.0 0.0 0.00 0.00 0.00 88 1011.5
20260502055459 55 250 0.0 0.0 0.00 0.00 0.00 88 1011.7
20260502055001 55 250 0.0 0.0 0.00 0.00 0.00 88 1011.6
20260502053959 55 250 0.0 0.0 0.00 0.00 0.00 88 1011.6
20260502053001 55 250 0.0 0.0 0.00 0.00 0.00 88 1011.6
20260502052000 55 250 0.0 0.0 0.00 0.00 0.00 88 1011.9
20260502051500 55 250 0.0 0.0 0.00 0.00 0.00 88 1011.9
20260502050500 55 250 0.0 0.0 0.00 0.00 0.00 89 1012.2
20260502050004 55 250 0.0 0.0 0.00 0.00 0.00 87 1012.2
20260502045500 55 250 0.0 0.0 0.00 0.00 0.00 87 1012.3
20260502044959 55 250 0.0 0.0 0.00 0.00 0.00 87 1012.3
20260502044500 56 250 0.0 0.0 0.00 0.00 0.00 87 1012.3
20260502044001 55 250 0.0 0.0 0.00 0.00 0.00 87 1012.2
20260502043500 56 250 0.0 0.0 0.00 0.00 0.00 87 1012.4
20260502043000 56 250 0.0 0.0 0.00 0.00 0.00 88 1012.3
20260502042459 56 250 0.0 0.0 0.00 0.00 0.00 86 1012.3
20260502042000 56 250 0.0 0.0 0.00 0.00 0.00 86 1012.3
20260502041500 56 250 0.0 0.0 0.00 0.00 0.00 87 1012.4
20260502041002 56 250 0.0 0.0 0.00 0.00 0.00 86 1012.4
20260502040500 56 250 0.0 0.0 0.00 0.00 0.00 85 1012.6
20260502040010 56 250 0.0 0.0 0.00 0.00 0.00 85 1012.7
20260502035502 56 250 0.0 0.0 0.00 0.00 0.00 85 1012.8
20260502035002 56 250 0.0 0.0 0.00 0.00 0.00 85 1012.7
20260502034502 56 250 0.0 0.0 0.00 0.00 0.00 85 1012.7
20260502034003 56 250 0.0 0.0 0.00 0.00 0.00 84 1012.8
20260502033503 56 250 0.0 0.0 0.00 0.00 0.00 84 1012.7
20260502032503 56 250 0.0 0.0 0.00 0.00 0.00 84 1012.7
20260502032004 56 250 0.0 0.0 0.00 0.00 0.00 84 1012.7
20260502031502 56 250 0.0 0.0 0.00 0.00 0.00 83 1012.7
20260502031002 57 250 0.0 0.0 0.00 0.00 0.00 84 1012.7
20260502030503 57 250 0.0 0.0 0.00 0.00 0.00 83 1012.8
20260502025502 57 250 0.0 0.0 0.00 0.00 0.00 83 1012.8
20260502025002 57 250 0.0 0.0 0.00 0.00 0.00 83 1012.8
20260502024502 57 250 0.0 0.0 0.00 0.00 0.00 82 1012.9
20260502024004 57 250 0.0 0.0 0.00 0.00 0.00 83 1012.8
20260502023501 57 250 0.0 0.0 0.00 0.00 0.00 83 1012.7
20260502023002 57 250 0.0 0.0 0.00 0.00 0.00 82 1012.8
20260502022502 57 250 0.0 0.0 0.00 0.00 0.00 82 1012.9
20260502022003 57 250 0.0 0.0 0.00 0.00 0.00 82 1012.7
20260502021003 58 250 0.0 0.0 0.00 0.00 0.00 81 1012.6
20260502020501 58 250 0.0 0.0 0.00 0.00 0.00 81 1012.6
20260502015003 58 250 0.0 0.0 0.00 0.00 0.00 81 1012.7
20260502014001 58 250 0.0 0.0 0.00 0.00 0.00 81 1012.6
20260502013501 58 250 0.0 0.0 0.00 0.00 0.00 82 1012.5
20260502013005 58 250 0.0 0.0 0.00 0.00 0.00 80 1012.4
20260502012502 59 250 0.0 0.0 0.00 0.00 0.00 78 1012.3
20260502012004 59 250 0.0 1.0 0.00 0.00 0.00 78 1012.4
20260502011503 59 250 0.0 1.0 0.00 0.00 0.00 78 1012.4
20260502011002 59 250 0.0 0.0 0.00 0.00 0.00 78 1012.4
20260502005503 60 250 0.0 0.0 0.00 0.00 0.00 75 1012.4
20260502005004 60 250 0.0 0.0 0.00 0.00 0.00 75 1012.4
20260502004003 60 250 0.0 0.0 0.00 0.00 0.00 75 1012.2
20260502003002 61 250 0.0 0.0 0.00 0.00 0.00 74 1012.0
20260502002504 61 250 0.0 0.0 0.00 0.00 0.00 74 1012.0
20260502002004 61 250 0.0 0.0 0.00 0.00 0.00 74 1011.9
20260502001502 62 250 0.0 0.0 0.00 0.00 0.00 73 1012.0
20260502001002 62 250 0.0 0.0 0.00 0.00 0.00 73 1011.9
20260502000504 62 250 0.0 0.0 0.00 0.00 0.00 73 1011.8
20260502000004 62 250 0.0 0.0 0.00 0.00 0.00 72 1011.8
20260501235502 63 250 0.0 0.0 0.00 0.00 0.00 72 1011.8
20260501235004 63 250 0.0 0.0 0.00 0.00 0.00 72 1011.9
20260501234003 63 250 0.0 0.0 0.00 0.00 0.00 70 1011.7